Temperature
9 8 8 9 9 9 9 8 8 9 11 10 9 10 10 11 12 12 12 12 12 12 12 12 12 12 12 12 12 12 12 12 12 12 12 12 12 12 12 12 12 12 12 12
9 8 9 10 10 9 9 8 8 9 11 10 9 9 10 11 11 12 12 12 12 12 12 12 12 12 12 12 12 11 12 12 12 12 12 12 12 12 12 12 12 12 12 11
8 9 10 10 9 9 8 8 8 8 9 9 8 8 10 11 12 12 12 12 12 11 11 11 11 11 11 11 11 11 11 11 11 11 11 11 11 11 11 11 12 12 12 11
9 10 10 9 8 8 7 9 9 8 7 6 8 6 8 10 11 11 11 11 11 11 10 11 11 10 10 11 11 11 10 11 11 11 11 11 11 11 11 11 11 11 11 11
8 9 9 8 9 9 8 9 8 7 6 6 7 6 8 10 10 11 11 11 11 10 10 10 10 10 10 10 10 10 10 10 10 11 11 11 11 11 11 11 11 11 11 11
8 9 9 9 9 9 8 8 7 7 6 5 6 6 7 9 10 10 10 11 11 10 10 9 9 9 9 10 10 9 10 10 10 10 10 10 10 10 10 11 11 11 11 11
8 9 9 9 8 8 7 5 4 4 4 5 8 8 8 10 10 10 10 10 10 9 9 9 9 9 9 9 9 9 9 9 9 10 10 10 10 10 10 11 11 11 11 11
6 7 9 8 7 7 6 5 4 3 4 6 7 7 9 10 10 10 10 10 10 9 9 8 8 8 8 8 9 9 9 9 9 9 10 10 10 10 10 10 11 11 11 11
5 6 9 8 8 7 6 6 6 4 4 4 6 7 9 10 9 9 9 9 9 9 8 8 8 8 8 8 8 8 9 9 9 9 9 9 10 10 10 10 10 11 11 11
6 4 6 8 8 7 7 6 5 4 3 4 5 7 7 8 8 9 8 8 8 8 8 8 8 8 8 8 8 8 8 9 9 9 9 9 10 10 10 10 10 10 11 11
6 4 5 6 6 5 6 5 5 4 4 3 4 5 8 8 8 8 8 8 8 8 7 7 7 8 8 8 8 8 8 8 8 8 9 9 9 10 10 10 10 10 10 10
5 3 3 5 6 7 6 5 4 3 2 3 3 5 8 8 8 8 7 8 8 8 7 7 7 7 7 7 7 7 7 8 8 8 8 8 9 9 9 10 10 10 10 10
4 2 2 3 5 5 4 4 4 3 3 2 3 4 7 7 7 8 8 8 7 7 7 7 6 7 7 7 7 7 7 7 7 7 8 8 8 9 9 9 10 10 10 10
4 2 2 3 4 3 3 3 3 2 2 2 3 4 6 6 6 7 7 7 7 7 6 6 6 6 6 6 6 7 7 7 7 7 7 8 8 8 9 9 9 10 10 10
3 2 2 3 4 4 3 3 3 3 2 2 3 4 5 6 6 6 6 6 6 6 6 6 5 5 5 6 6 6 6 7 7 7 7 7 8 8 9 9 9 10 10 10
2 1 2 2 3 4 3 4 4 4 4 4 4 4 6 6 6 6 6 6 6 5 5 5 5 5 5 5 5 6 6 6 7 7 7 7 8 8 8 9 9 9 10 10
1 1 1 1 3 3 2 4 4 4 4 4 4 4 5 5 5 5 5 5 5 5 5 5 5 4 4 4 5 5 5 6 6 6 7 7 7 8 8 8 9 9 9 9
1 1 1 1 1 1 3 5 5 5 5 5 4 4 4 5 5 5 5 5 4 4 4 4 4 4 4 4 4 4 5 5 5 6 6 7 7 7 8 8 8 9 9 9
2 1 1 1 1 1 4 5 5 4 3 4 4 4 4 5 5 5 5 4 4 4 4 4 4 3 3 3 4 4 4 4 5 5 6 6 7 7 7 8 8 8 9 9
2 1 0 1 1 1 3 4 5 4 2 3 3 3 3 3 2 3 4 3 3 3 3 3 3 3 3 3 3 3 3 4 4 5 5 6 6 7 7 7 8 8 8 9
0 0 0 0 0 1 4 4 4 1 1 3 3 3 3 2 2 3 3 3 3 3 3 3 3 3 3 3 3 3 3 3 4 4 5 5 6 6 7 7 7 8 8 8
0 -0 -0 0 -0 1 3 3 2 2 3 3 3 3 2 2 2 2 2 2 2 2 2 2 2 2 2 2 2 2 3 3 3 4 5 5 5 6 6 6 7 7 8 8
1 1 1 1 2 3 4 3 3 3 3 3 2 2 2 1 1 1 1 1 1 1 1 1 1 2 2 2 2 2 2 2 3 3 4 5 5 5 6 6 7 7 7 7
2 2 1 1 2 3 4 3 3 3 2 2 2 1 1 1 1 0 1 1 1 1 1 1 1 1 1 1 1 2 2 2 2 3 3 4 5 5 6 6 6 6 7 7
2 2 1 1 1 2 3 3 2 2 2 1 1 1 0 0 -0 -0 -0 -0 -0 0 0 0 0 0 1 1 1 1 1 1 2 2 3 3 4 5 5 6 6 6 7 7
1 1 0 1 1 1 1 2 2 1 1 0 0 -0 -0 -1 -1 -1 -1 -1 -1 -1 -1 -0 -0 -0 -0 0 0 1 1 1 1 2 2 3 3 4 5 5 5 6 6 7
Wind_Speed
4 4 7 8 8 10 13 15 18 18 15 15 17 20 18 16 15 15 13 11 11 11 10 9 9 8 8 7 7 8 8 8 8 8 8 8 7 7 8 10 14 16 17 18
4 8 10 8 9 12 14 16 18 16 12 14 17 22 20 18 17 15 12 10 9 9 9 8 8 7 8 8 7 8 8 8 8 7 8 8 8 7 7 9 12 16 17 17
9 8 7 9 10 12 14 13 14 16 17 12 16 16 15 12 13 12 10 7 6 9 9 8 7 6 5 7 7 7 8 9 8 8 7 7 7 6 6 9 11 13 17 17
8 8 8 10 11 11 13 11 14 15 13 8 7 10 12 13 11 8 6 4 4 6 7 7 6 6 6 6 6 7 9 9 9 8 8 10 10 9 8 9 10 12 16 17
7 7 8 11 11 11 9 12 14 15 14 14 13 10 9 8 8 4 3 4 5 5 6 6 6 6 5 4 4 6 8 9 9 9 9 10 9 8 7 9 11 12 14 16
14 11 8 7 8 9 10 10 13 12 8 8 10 8 7 5 5 4 4 4 4 4 5 5 5 5 5 4 4 6 7 9 9 9 10 10 10 10 10 11 12 12 11 13
8 9 8 5 6 6 5 5 4 3 4 7 7 6 6 4 4 4 4 4 3 4 4 4 4 5 5 4 5 7 7 8 9 10 11 11 11 11 11 12 12 12 11 11
6 6 3 2 4 4 5 4 4 4 5 7 8 7 5 4 3 4 4 4 3 4 4 5 4 4 4 4 4 6 7 7 8 10 10 10 11 10 9 11 11 12 12 12
5 6 3 3 5 5 4 5 6 6 8 8 7 7 7 5 4 4 5 5 4 5 6 6 5 4 4 4 4 4 5 6 8 9 9 9 10 10 10 11 12 11 11 11
4 8 7 7 6 8 8 5 3 3 5 7 8 8 6 4 5 7 7 7 6 6 6 7 5 5 4 3 4 4 5 6 6 7 8 8 10 10 9 10 13 12 13 12
4 6 7 5 6 7 7 7 6 5 5 5 7 6 3 6 7 9 9 7 6 6 6 7 6 5 5 3 3 3 4 4 4 6 7 7 9 9 9 9 12 12 12 14
4 5 7 9 10 9 9 8 7 6 7 6 7 9 5 6 6 7 8 8 7 6 6 6 6 6 5 5 4 3 4 4 4 5 5 7 7 8 9 9 11 12 13 13
4 4 6 6 4 4 4 7 7 7 7 9 11 10 5 6 8 9 9 9 8 7 6 6 6 6 6 6 5 4 4 4 4 4 5 6 6 7 9 10 10 12 12 12
6 7 9 10 7 4 8 10 9 9 9 12 16 19 16 13 12 12 10 10 9 8 6 6 5 6 7 7 6 5 4 3 3 4 6 6 6 7 7 8 9 11 12 12
6 8 11 17 18 16 16 17 14 15 15 16 19 22 21 15 12 11 10 9 9 8 7 6 5 5 6 7 7 6 5 4 3 4 5 6 6 5 5 6 8 10 11 12
7 7 8 15 16 17 21 21 20 19 18 20 22 23 18 14 11 10 10 9 9 9 8 7 6 6 6 7 7 7 6 6 4 4 5 4 4 5 5 6 7 9 10 11
6 6 5 11 11 12 15 16 18 16 15 15 17 17 13 11 10 9 9 8 8 8 8 8 7 6 6 7 6 7 7 7 5 5 5 4 4 4 5 5 6 8 9 10
8 7 6 7 6 12 10 6 8 12 12 10 10 10 9 11 9 8 7 7 7 7 8 7 7 7 7 7 7 6 6 6 6 6 5 4 4 5 5 5 6 7 7 9
14 10 6 5 8 11 10 8 6 7 9 7 8 9 9 9 8 6 6 6 7 7 7 6 6 7 7 7 7 6 5 5 5 6 6 4 4 5 5 6 6 6 7 7
11 11 9 7 7 7 5 2 1 2 7 4 4 5 6 7 6 6 8 8 8 8 6 6 6 6 7 7 7 7 5 5 6 6 6 5 5 5 5 6 6 5 6 6
7 8 12 13 10 9 6 1 2 3 5 1 1 3 4 5 6 8 9 9 8 8 8 7 7 6 6 6 6 7 6 6 6 6 6 5 4 5 5 5 4 5 6 7
9 7 8 8 9 10 3 3 4 5 2 2 3 4 5 7 9 9 9 9 9 8 8 8 7 7 7 6 6 7 7 7 6 5 5 5 5 4 4 5 5 5 7 8
9 10 6 9 9 5 3 4 4 4 5 5 5 5 6 7 8 9 9 10 9 9 8 7 8 8 7 6 6 7 7 7 6 6 6 5 5 5 5 6 6 6 7 7
6 7 7 8 9 9 7 7 6 6 6 5 5 6 6 8 9 9 9 10 10 9 8 7 8 8 8 7 6 6 7 7 7 6 6 5 5 5 5 5 6 6 7 8
7 5 8 12 11 10 9 7 6 6 6 6 7 6 7 8 9 9 10 10 10 9 8 8 8 9 9 8 7 7 6 6 7 7 6 5 5 4 4 4 5 6 7 8
8 9 9 10 7 6 6 6 6 6 6 7 7 8 7 7 9 10 10 10 9 10 9 9 9 9 9 9 8 7 6 6 7 6 5 5 4 4 4 4 2 3 5 8
Wind_Direction
213 238 250 261 261 278 291 288 287 288 293 291 287 287 289 284 275 267 262 263 265 267 270 259 255 250 247 240 226 213 203 200 197 189 183 183 183 185 186 179 174 174 171 168
252 246 258 282 289 284 282 282 285 290 298 300 289 284 283 275 266 262 257 256 258 266 273 264 255 246 238 235 223 217 208 202 200 195 185 184 182 185 191 181 178 174 172 171
262 267 288 288 285 283 281 280 289 298 307 291 287 281 275 274 265 260 256 253 262 269 271 264 253 248 239 234 222 224 213 205 204 197 188 186 181 181 193 186 179 178 172 171
272 270 276 277 277 281 285 292 299 299 301 291 292 293 284 281 271 253 251 260 263 276 280 270 257 251 245 240 226 226 215 209 204 191 193 191 194 193 200 188 181 181 177 172
267 278 280 275 276 286 280 302 296 287 280 282 272 268 275 265 271 272 278 274 270 268 276 279 276 252 249 244 229 231 221 212 206 192 193 196 202 196 193 185 183 184 180 175
262 267 270 266 280 287 294 302 291 271 261 267 257 247 279 266 282 296 310 313 297 295 285 278 283 267 256 242 229 236 221 213 205 199 199 199 198 195 191 188 185 183 179 179
281 257 229 224 273 274 283 309 312 303 237 248 278 261 258 279 305 305 306 308 299 299 306 298 295 293 273 250 232 228 224 217 206 202 205 204 200 198 197 191 186 182 183 183
296 288 244 197 234 269 255 238 247 278 274 297 306 265 266 305 333 330 327 321 314 315 315 300 291 275 274 272 251 228 224 225 212 204 208 207 203 202 199 194 186 187 189 187
279 278 298 278 256 251 263 238 246 269 281 277 260 263 276 303 346 354 355 353 344 330 317 306 306 288 272 267 267 254 235 232 224 211 207 211 206 204 199 197 190 187 187 185
266 281 276 273 257 231 238 272 279 252 277 272 269 272 282 335 357 355 346 344 341 339 325 316 316 311 285 268 261 255 253 237 238 226 213 216 211 202 201 201 194 187 187 185
247 263 279 260 224 238 225 237 241 248 254 273 284 276 307 344 343 341 334 331 335 330 330 332 321 316 305 284 253 250 262 257 250 244 229 225 214 202 203 210 195 187 185 185
233 255 267 257 250 240 234 234 228 243 257 254 273 273 289 313 322 329 330 330 327 323 325 329 327 326 322 311 282 258 255 257 255 256 245 238 220 202 204 208 200 189 187 187
210 233 280 282 239 221 246 243 243 249 264 261 264 270 283 313 317 321 324 322 324 318 321 324 328 328 325 318 302 275 260 257 258 263 254 237 228 215 207 203 203 192 187 188
223 223 224 245 263 281 272 265 251 245 252 260 257 271 286 300 307 313 318 319 321 317 319 321 326 325 321 320 314 301 280 266 265 261 250 235 231 227 213 205 205 194 188 190
221 245 244 257 268 272 268 266 254 244 244 254 267 273 281 292 298 304 308 309 314 315 314 314 316 315 317 317 317 315 306 287 275 260 253 243 232 233 221 215 207 193 188 190
218 251 263 264 263 266 268 264 258 253 252 255 265 271 278 286 296 303 306 311 314 314 312 313 315 315 313 311 311 310 309 303 281 257 256 250 236 229 227 219 209 192 187 188
210 229 253 265 273 280 266 256 253 250 247 252 259 269 290 299 302 303 305 304 304 306 309 310 311 312 310 306 305 302 300 302 291 270 258 242 235 229 228 221 208 194 189 187
221 229 246 269 276 251 250 249 250 257 257 254 265 281 291 295 294 291 299 307 306 312 313 312 315 316 311 306 305 300 300 294 288 279 266 248 231 231 229 215 214 197 189 190
218 221 237 248 254 267 269 264 252 258 268 270 277 291 301 311 306 292 319 328 318 308 305 303 306 310 310 307 308 301 290 288 284 281 273 256 237 228 221 213 213 200 189 191
210 211 228 240 249 257 262 315 13 298 270 276 280 297 315 329 313 302 329 326 320 318 316 315 313 310 310 309 312 304 289 287 282 279 275 260 248 230 224 216 209 198 190 188
191 209 225 239 250 260 265 250 123 224 256 323 329 305 302 287 273 296 315 317 313 310 311 313 312 310 305 308 311 303 295 288 286 285 280 263 252 237 225 218 202 191 183 178
192 206 215 224 240 252 225 173 208 237 289 312 303 296 295 294 301 310 314 314 313 311 311 311 308 303 302 303 304 300 296 293 290 287 282 270 254 237 217 204 195 189 179 175
205 207 211 214 231 258 228 232 245 268 281 283 286 292 296 296 299 305 308 308 305 304 304 305 301 300 298 293 290 290 293 297 295 289 277 269 258 233 215 203 191 189 183 177
233 220 239 257 259 267 263 257 256 258 268 282 290 290 290 289 294 299 301 301 302 300 301 301 298 297 297 294 284 281 291 296 294 285 278 270 256 238 215 207 195 190 186 180
239 230 242 253 263 277 270 273 285 287 288 292 292 285 282 285 289 292 294 295 296 297 299 298 293 291 291 293 290 287 289 291 289 282 277 274 255 227 212 210 208 203 198 189
233 237 242 252 250 251 267 279 291 290 286 287 289 288 285 283 286 288 288 289 292 295 295 293 290 289 289 288 286 286 285 282 279 277 272 269 252 223 205 193 201 215 195 179
Height
1466 1468 1464 1459 1458 1457 1455 1453 1449 1442 1437 1435 1431 1424 1419 1416 1414 1410 1408 1407 1406 1406 1405 1406 1406 1406 1407 1408 1409 1410 1412 1414 1417 1420 1422 1425 1428 1432 1435 1439 1442 1447 1450 1455
1464 1463 1457 1455 1455 1455 1453 1451 1445 1438 1433 1432 1427 1420 1413 1409 1405 1403 1401 1400 1401 1401 1401 1401 1401 1401 1402 1403 1404 1405 1407 1409 1411 1414 1417 1420 1424 1427 1431 1434 1438 1441 1444 1451
1461 1456 1453 1454 1453 1452 1450 1448 1443 1439 1434 1430 1426 1415 1406 1399 1397 1396 1395 1395 1396 1397 1397 1397 1397 1397 1397 1398 1399 1400 1401 1403 1406 1409 1413 1417 1420 1423 1426 1428 1432 1436 1441 1446
1456 1452 1452 1452 1451 1449 1448 1442 1440 1438 1440 1436 1429 1425 1405 1398 1392 1390 1391 1391 1392 1394 1394 1393 1392 1392 1392 1393 1394 1395 1397 1398 1400 1404 1407 1409 1412 1415 1418 1423 1427 1432 1436 1441
1454 1450 1450 1449 1447 1446 1444 1441 1440 1437 1437 1436 1427 1427 1406 1394 1391 1389 1388 1389 1389 1390 1390 1389 1388 1388 1388 1388 1389 1390 1391 1393 1395 1398 1401 1403 1407 1410 1415 1418 1421 1426 1431 1436
1451 1448 1447 1445 1444 1445 1442 1441 1437 1432 1434 1439 1421 1421 1406 1394 1390 1388 1387 1386 1387 1387 1386 1386 1385 1384 1384 1384 1384 1385 1386 1388 1390 1393 1396 1399 1401 1405 1409 1413 1416 1420 1425 1431
1447 1442 1440 1442 1444 1443 1444 1449 1451 1445 1440 1431 1409 1408 1401 1390 1387 1386 1385 1385 1385 1385 1384 1383 1382 1381 1380 1379 1379 1381 1382 1383 1385 1388 1391 1394 1396 1400 1403 1407 1410 1415 1419 1425
1453 1446 1438 1439 1442 1444 1444 1447 1456 1454 1440 1422 1412 1407 1395 1386 1384 1383 1383 1383 1382 1382 1381 1380 1379 1378 1377 1376 1376 1376 1377 1379 1381 1383 1386 1389 1393 1396 1399 1402 1406 1410 1415 1419
1454 1446 1436 1437 1438 1440 1441 1442 1440 1445 1439 1434 1417 1400 1392 1385 1383 1383 1383 1382 1381 1381 1380 1378 1377 1375 1374 1373 1372 1373 1374 1375 1377 1379 1381 1384 1387 1390 1394 1398 1402 1406 1411 1415
1452 1452 1440 1436 1436 1436 1437 1437 1442 1445 1445 1433 1413 1402 1396 1388 1386 1384 1383 1381 1380 1379 1378 1377 1375 1373 1372 1371 1370 1370 1371 1372 1373 1375 1377 1379 1381 1384 1389 1393 1396 1400 1405 1410
1450 1453 1443 1437 1435 1435 1436 1437 1437 1439 1437 1435 1424 1407 1388 1388 1386 1386 1384 1382 1380 1378 1377 1375 1373 1372 1370 1368 1368 1367 1368 1368 1369 1371 1373 1375 1377 1379 1383 1387 1391 1396 1401 1405
1449 1451 1446 1435 1427 1426 1428 1430 1434 1442 1438 1430 1425 1408 1389 1388 1386 1386 1384 1382 1379 1377 1376 1374 1372 1370 1369 1367 1366 1365 1365 1365 1366 1366 1368 1370 1372 1375 1378 1382 1386 1391 1396 1400
1448 1451 1450 1435 1429 1427 1428 1427 1428 1431 1432 1428 1423 1405 1387 1386 1385 1384 1383 1381 1378 1376 1374 1372 1369 1368 1366 1365 1364 1363 1363 1363 1363 1363 1364 1366 1368 1371 1373 1377 1381 1386 1391 1395
1443 1445 1445 1438 1427 1429 1429 1427 1426 1429 1429 1422 1411 1399 1389 1387 1385 1383 1381 1379 1377 1374 1372 1370 1368 1366 1365 1363 1362 1361 1360 1360 1360 1360 1361 1362 1364 1366 1368 1372 1376 1381 1385 1390
1440 1439 1434 1428 1423 1423 1422 1419 1417 1419 1416 1415 1402 1395 1387 1385 1383 1381 1378 1376 1374 1372 1370 1368 1366 1365 1363 1361 1359 1358 1357 1357 1357 1357 1357 1357 1360 1362 1364 1368 1371 1375 1380 1385
1435 1433 1429 1424 1418 1417 1413 1407 1405 1404 1402 1399 1394 1387 1381 1380 1379 1377 1375 1373 1371 1369 1368 1366 1364 1363 1361 1359 1357 1356 1354 1354 1354 1354 1354 1355 1356 1358 1361 1364 1366 1370 1375 1380
1430 1431 1429 1420 1413 1412 1407 1395 1393 1392 1389 1390 1388 1382 1377 1376 1375 1374 1372 1370 1369 1367 1366 1364 1362 1360 1358 1356 1355 1353 1351 1350 1350 1351 1351 1352 1353 1355 1357 1359 1362 1366 1370 1375
1425 1426 1425 1419 1418 1415 1393 1383 1382 1381 1379 1379 1378 1376 1374 1373 1371 1370 1369 1367 1365 1364 1362 1361 1359 1357 1355 1353 1352 1349 1348 1347 1347 1347 1348 1349 1350 1352 1354 1356 1359 1362 1366 1370
1414 1419 1420 1416 1411 1399 1385 1379 1378 1379 1377 1375 1374 1372 1371 1370 1367 1366 1366 1364 1363 1362 1360 1358 1356 1354 1352 1350 1348 1346 1344 1344 1344 1343 1344 1345 1347 1348 1350 1352 1355 1358 1362 1366
1406 1411 1415 1410 1407 1398 1381 1375 1373 1377 1378 1372 1371 1371 1370 1369 1370 1367 1364 1362 1360 1359 1357 1354 1352 1350 1348 1346 1344 1342 1341 1340 1340 1340 1341 1342 1343 1344 1346 1348 1351 1354 1358 1362
1406 1408 1408 1405 1400 1388 1376 1373 1374 1383 1378 1370 1369 1369 1369 1369 1368 1365 1362 1360 1358 1356 1354 1351 1349 1347 1345 1343 1341 1339 1337 1336 1336 1337 1337 1338 1339 1340 1342 1344 1347 1350 1354 1358
1397 1399 1399 1398 1396 1386 1371 1371 1374 1372 1368 1368 1368 1367 1367 1365 1363 1361 1359 1357 1354 1352 1350 1348 1345 1343 1342 1340 1338 1335 1334 1333 1333 1333 1333 1333 1335 1336 1338 1340 1343 1346 1350 1354
1383 1384 1383 1382 1377 1368 1367 1367 1366 1366 1366 1365 1365 1364 1363 1362 1360 1358 1356 1353 1351 1349 1346 1344 1341 1339 1337 1336 1334 1332 1331 1330 1329 1328 1328 1329 1331 1332 1334 1336 1339 1342 1345 1349
1374 1373 1374 1372 1366 1364 1363 1363 1363 1363 1362 1361 1361 1360 1359 1358 1356 1354 1352 1349 1347 1345 1342 1339 1337 1334 1333 1332 1330 1328 1327 1326 1324 1324 1324 1325 1326 1327 1329 1332 1334 1337 1340 1344
1368 1368 1368 1366 1362 1361 1359 1359 1359 1358 1358 1357 1356 1356 1355 1353 1352 1350 1347 1345 1343 1340 1337 1335 1333 1330 1328 1326 1325 1324 1323 1322 1320 1320 1320 1320 1321 1323 1325 1327 1330 1333 1336 1339
1362 1363 1364 1360 1358 1358 1355 1355 1355 1354 1353 1353 1352 1351 1350 1349 1347 1345 1342 1340 1337 1335 1333 1330 1327 1325 1323 1321 1319 1319 1318 1317 1316 1315 1315 1316 1317 1319 1321 1323 1327 1330 1333 1337